Regional Weather Roundup
Issued by NWS

Home | Current Version | Previous Version | Text Only | Print | Product List | Glossary Off
Versions: 1 2 3 4 5 6 7 8 9 10 11 12 13 14 15 16 17 18 19 20 21 22 23 24 25 26 27 28 29 30 31 32 33 34 35 36 37 38 39 40 41 42 43 44 45 46 47 48 49 50

000
ASUS43 KLSX 171159
RWRMO

WEATHER SUMMARY FOR MISSOURI
NATIONAL WEATHER SERVICE SPRINGFIELD MO
600 AM CST WED DEC 17 2014

NOTE: "FAIR" INDICATES FEW OR NO CLOUDS BELOW 12,000 FEET WITH NO
       SIGNIFICANT WEATHER AND/OR OBSTRUCTIONS TO VISIBILITY.
       CURRENT SKY AND/OR WEATHER CONDITIONS ARE NOT AVAILABLE FOR
       CHILLICOTHE AND FARMINGTON.

MOZ001>031-035>038-043-044-053-054-171300-
...NORTHERN AND WESTERN MISSOURI...

CITY           SKY/WX    TMP DP  RH WIND       PRES   REMARKS
KANSAS CTY INT CLOUDY    22  17  81 N8        30.33S WCI  12
6HR MIN TEMP:  22; 6HR MAX TEMP:  26;

KANSAS C DTWN  MOCLDY    25  17  72 N5        30.35S WCI  19
6HR MIN TEMP:  25; 6HR MAX TEMP:  28;

LEE`S SUMMIT   MOCLDY    24  18  77 N7        30.34R WCI  16
6HR MIN TEMP:  24; 6HR MAX TEMP:  27;

ST JOSEPH      CLOUDY    22  16  78 N8        30.36S WCI  12
6HR MIN TEMP:  19; 6HR MAX TEMP:  22;

CHILLICOTHE      N/A     22  16  78 VRB3      30.35F
6HR MIN TEMP:  21; 6HR MAX TEMP:  25;

KIRKSVILLE     CLOUDY    23  20  88 N5        30.32R WCI  17
6HR MIN TEMP:  23; 6HR MAX TEMP:  24;


$$
MOZ066>068-077>081-088>096-101>105-171300-
...SOUTHWEST MISSOURI...

CITY           SKY/WX    TMP DP  RH WIND       PRES   REMARKS
SPRINGFIELD    PTCLDY    25  22  88 N5        30.29S WCI  19
6HR MIN TEMP:  25; 6HR MAX TEMP:  28;

JOPLIN         MOCLDY    27  23  85 NE6       30.32F WCI  20
6HR MIN TEMP:  27; 6HR MAX TEMP:  28;


$$
MOZ032>034-039>042-045>050-055>058-069>072-171300-
...CENTRAL MISSOURI...

CITY           SKY/WX    TMP DP  RH WIND       PRES   REMARKS
COLUMBIA       CLOUDY    25  21  85 NW6       30.32S WCI  18
6HR MIN TEMP:  25; 6HR MAX TEMP:  29;

JEFFERSON CITY MOCLDY    27  21  78 NW5       30.34F WCI  22
6HR MIN TEMP:  26; 6HR MAX TEMP:  30;

ROLLA          CLOUDY    26  20  77 NW6       30.28S WCI  19
6HR MIN TEMP:  24; 6HR MAX TEMP:  27;

SEDALIA        PTCLDY    25  20  81 NW6       30.34R WCI  18
6HR MIN TEMP:  25; 6HR MAX TEMP:  29;

WARRENSBURG    PTCLDY    25  21  86 N3        30.35R
OSAGE BEACH    PTCLDY    27  19  74 CALM      30.34R

$$
MOZ051-052-059>065-171300-
...EAST CENTRAL MISSOURI...

CITY           SKY/WX    TMP DP  RH WIND       PRES   REMARKS
ST LOUIS INTL  MOCLDY    31  22  69 NW6       30.33R WCI  25
6HR MIN TEMP:  31; 6HR MAX TEMP:  32;

SPIRIT OF STL  CLOUDY    30  22  72 W7        30.33R WCI  23
6HR MIN TEMP:  30; 6HR MAX TEMP:  31;

ST CHARLES     CLOUDY    30  22  72 NW8       30.33R WCI  22
6HR MIN TEMP:  29; 6HR MAX TEMP:  31;


$$
MOZ072>076-082>087-097>100-106>115-171300-
...SOUTH CENTRAL AND SOUTHEAST MISSOURI...

CITY           SKY/WX    TMP DP  RH WIND       PRES   REMARKS
CAPE GIRARDEAU CLOUDY    31  25  78 N8        30.33R WCI  23
6HR MIN TEMP:  31; 6HR MAX TEMP:  35;

FARMINGTON     CLOUDY    27  21  80 W6        30.31S WCI  20
6HR MIN TEMP:  27; 6HR MAX TEMP:  28;

POPLAR BLUFF   PTCLDY    29  23  78 N7        30.32R WCI  22
6HR MIN TEMP:  28; 6HR MAX TEMP:  35;

WEST PLAINS    CLEAR     25  21  85 N3        30.29R
6HR MIN TEMP:  25; 6HR MAX TEMP:  28;


$$


USA.gov is the U.S. government's official web portal to all federal, state and local government web resources and services.